[[{"header":{"parameterUnit":"m.s-1","parameterCategory":1,"la1":30.2991,"la2":30.254,"lo1":-89.0895,"lo2":-89.0444,"dy":0.0017,"dx":0.0017,"nx":28,"ny":28,"refTime":"2023-09-25T03:00:00:Z","depth":0,"parameterNumber":2,"parameterNumberName":"U-component_of_WINDS"},"data":[0,0,0,0,0,0,0,0,0,0,0,0,0,0,0,0,0,0,0,0,0,0,0,0,0,0,0,0,0,0,0,0,0,0,0,0,0,0,0,0,0,0,0,0,0,0,0,0,0,0,0,0,0,0,0,0,0,0,-0.9342,-0.9342,0,-0.9389,-0.9389,-0.939,-0.9366,-0.9365,-0.9364,-0.9362,-0.9412,-0.9414,-0.9417,0,0,0,0,0,0,0,0,0,0,0,0,0,-0.9232,-0.9234,-0.9342,-0.9342,-0.9343,-0.9389,-0.9389,-0.939,-0.9366,-0.9365,-0.9363,-0.9362,-0.9411,-0.9414,-0.9417,0,0,0,0,0,0,0,0,0,0,0,0,0,-0.9279,-0.9234,-0.9342,-0.9337,-0.9337,-0.9389,-0.9389,-0.939,-0.9367,-0.9365,-0.9363,-0.9361,-0.941,-0.9414,-0.9417,-0.9477,0,0,-0.9428,-0.943,0,0,0,0,0,0,0,0,-0.9277,-0.9283,-0.9337,-0.9337,-0.9337,-0.937,-0.9369,-0.9419,-0.9367,-0.9355,-0.9362,-0.936,-0.9399,-0.9404,-0.9417,-0.948,-0.9482,-0.9429,-0.9431,-0.9433,-0.9434,0,0,0,0,0,0,0,-0.9273,-0.9281,-0.936,-0.9338,-0.9338,-0.9332,-0.9337,-0.9378,-0.9387,-0.9356,-0.9355,-0.936,-0.9399,-0.9413,-0.9418,-0.9482,-0.9429,-0.9432,-0.9434,-0.9436,-0.9596,-0.9598,0,0,0,0,0,0,-0.927,-0.9278,-0.9359,-0.9362,-0.9302,-0.9336,-0.9341,-0.9361,-0.9387,-0.9389,-0.9362,-0.9359,-0.9408,-0.9413,-0.9419,-0.9491,-0.9433,-0.9436,-0.9438,-0.9594,-0.9596,-0.9599,0,0,0,0,0,0,-0.9268,-0.9277,-0.9357,-0.932,-0.9329,-0.9339,-0.9362,-0.9363,-0.9377,-0.9391,-0.9393,-0.9375,-0.9407,-0.9414,-0.9463,-0.9492,-0.9438,-0.9441,-0.9592,-0.9595,-0.9598,-0.9635,0,0,0,0,0,0,-0.9265,-0.9277,-0.93,-0.932,-0.9331,-0.94,-0.9364,-0.9365,-0.9383,-0.938,-0.9403,-0.9405,-0.9406,-0.9457,-0.9466,-0.9496,-0.9444,-0.9589,-0.9593,-0.9597,-0.9631,-0.9639,-0.9645,0,0,0,0,0,-0.9261,-0.9309,-0.9301,-0.9311,-0.936,-0.9402,-0.9408,-0.9407,-0.9386,-0.9409,-0.9418,-0.9405,-0.9487,-0.9463,-0.9473,-0.9504,-0.9587,-0.9592,-0.9596,-0.9628,-0.9637,-0.9645,0,0,0,0,0,0,-0.9292,-0.9311,-0.9303,-0.9359,-0.9379,-0.9397,-0.9427,-0.9417,-0.9443,-0.9439,-0.9437,-0.9443,-0.9493,-0.9503,-0.9475,-0.9563,-0.9534,-0.9541,-0.9555,-0.9564,-0.9571,-0.9567,-0.9447,0,0,0,0,0,-0.9305,-0.9337,-0.9352,-0.94,-0.941,-0.9417,-0.9435,-0.9432,-0.9453,-0.9461,-0.9473,-0.9494,-0.9524,-0.9544,-0.9573,-0.9632,-0.9637,-0.9659,-0.9666,-0.9672,-0.9678,-0.9709,-0.9719,-0.9614,-0.9614,-0.9614,0,0,-0.9333,-0.9348,-0.9368,-0.9407,-0.9422,-0.9454,-0.9424,-0.946,-0.9484,-0.9466,-0.9513,-0.9523,-0.9545,-0.9599,-0.9624,-0.9609,-0.9708,-0.9678,-0.9682,-0.9685,-0.9715,-0.9725,-0.9734,-0.9617,-0.9616,-0.9616,0,0,-0.9401,-0.9415,-0.9456,-0.9472,-0.9494,-0.9498,-0.9508,-0.9528,-0.9534,-0.958,-0.9567,-0.9596,-0.9649,-0.9665,-0.9681,-0.9753,-0.9742,-0.9763,-0.9801,-0.9831,-0.9839,-0.9847,-0.9872,-0.9882,-0.9769,-0.9769,-0.9769,0,-0.9433,-0.9482,-0.9479,-0.9516,-0.9533,-0.9517,-0.9559,-0.9574,-0.9605,-0.9618,-0.9601,-0.9666,-0.9681,-0.9738,-0.9756,-0.9769,-0.978,-0.976,-0.9838,-0.9846,-0.9852,-0.9877,-0.9887,-0.9771,-0.9771,-0.9771,-0.977,0,-0.952,-0.9554,-0.9584,-0.9614,-0.9635,-0.9674,-0.9677,-0.9698,-0.9693,-0.9699,-0.9746,-0.9762,-0.9794,-0.9807,-0.9803,-0.9864,-0.9854,-0.9838,-0.9809,-0.9865,-0.9888,-0.9897,-0.9774,-0.9774,-0.9773,-0.9772,0,0,-0.9609,-0.9636,-0.9647,-0.966,-0.9684,-0.971,-0.9748,-0.9778,-0.9797,-0.9818,-0.985,-0.9895,-0.988,-0.9897,-0.9895,-0.9922,-0.9978,-0.9902,-0.9903,-0.9915,-1.0045,-1.0057,-1.0068,-0.997,-0.9972,-0.9973,-1.0043,0,-0.9678,-0.9745,-0.9743,-0.9805,-0.9836,-0.9821,-0.9854,-0.9872,-0.9878,-0.9905,-0.9912,-0.9943,-0.9921,-0.9931,-0.9957,-0.9965,-1.0004,-0.996,-1.0,-1.0001,-0.9995,-1.008,-1.0093,-1.0157,-1.0052,-1.0053,-1.0054,0,-0.9768,-0.9792,-0.9857,-0.9875,-0.9888,-0.9918,-0.9945,-0.9971,-0.9991,-0.9993,-1.0012,-1.0006,-1.0044,-1.0013,-1.0066,-1.0037,-1.0053,-1.0059,-1.0062,-1.0066,-1.0031,-1.0086,-1.0178,-1.0188,-1.0069,-1.0067,-1.0066,0,-0.9826,-0.9875,-0.992,-0.9931,-0.9954,-0.9975,-0.9985,-1.0003,-1.0021,-1.0045,-1.0057,-1.0085,-1.0101,-1.0123,-1.0124,-1.0101,-1.0177,-1.0146,-1.018,-1.018,-1.0197,-1.0196,-1.0293,-1.0207,-1.0207,-1.0207,-1.0207,0,-0.9904,-0.9944,-0.9946,-0.9974,-1.0018,-1.0016,-1.006,-1.0068,-1.0084,-1.0113,-1.0102,-1.0129,-1.0129,-1.0156,-1.0157,-1.0201,-1.0208,-1.0211,-1.0211,-1.0212,-1.0212,-1.0223,-1.0218,-1.0209,-1.0209,-1.0208,-1.0208,0,-0.9977,-0.998,-1.0028,-1.0044,-1.005,-1.0082,-1.0096,-1.0122,-1.0127,-1.0163,-1.0172,-1.0179,-1.0211,-1.0214,-1.0252,-1.0252,-1.0305,-1.03,-1.0298,-1.0297,-1.033,-1.0327,-1.0438,-1.0452,-1.0357,-1.0358,-1.0359,0,-1.0026,-1.0056,-1.0076,-1.0094,-1.0106,-1.0136,-1.0154,-1.0152,-1.0171,-1.0196,-1.0219,-1.025,-1.0275,-1.0326,-1.0335,-1.0364,-1.0359,-1.0396,-1.0363,-1.0363,-1.0359,-1.0357,-1.036,-1.0402,-1.0403,-1.0404,-1.0405,0,-1.0113,-1.0113,-1.0139,-1.0166,-1.0188,-1.0209,-1.0229,-1.0245,-1.0245,-1.0268,-1.03,-1.0319,-1.0357,-1.0387,-1.0415,-1.0426,-1.0416,-1.0415,-1.0424,-1.0426,-1.0423,-1.0425,-1.0315,-1.0413,-1.0412,-1.0411,-1.0411,-1.0411,-1.0175,-1.0201,-1.0219,-1.0249,-1.0263,-1.0282,-1.0307,-1.0314,-1.0341,-1.0372,-1.0369,-1.0405,-1.0423,-1.0459,-1.0471,-1.0499,-1.0487,-1.05,-1.0504,-1.0507,-1.051,-1.0419,-1.0504,-1.0504,-1.0504,-1.0504,-1.0504,0,-1.0261,-1.0272,-1.0299,-1.0327,-1.035,-1.0338,-1.0359,-1.0379,-1.0411,-1.0428,-1.0453,-1.0489,-1.0519,-1.053,-1.0558,-1.0579,-1.0575,-1.0586,-1.0585,-1.0587,-1.052,-1.0509,-1.0589,-1.0589,-1.0589,-1.0589,-1.0589,-1.0589,-1.0309,-1.0352,-1.0354,-1.0404,-1.0414,-1.0449,-1.0462,-1.0479,-1.0493,-1.0535,-1.0559,-1.0565,-1.058,-1.061,-1.0636,-1.0638,-1.0649,-1.0663,-1.0663,-1.0601,-1.0592,-1.0584,-1.0573,-1.0665,-1.0666,-1.0728,-1.0729,-1.0729]},{"header":{"parameterUnit":"m.s-1","parameterCategory":1,"la1":30.2991,"la2":30.254,"lo1":-89.0895,"lo2":-89.0444,"dy":0.0017,"dx":0.0017,"nx":28,"ny":28,"refTime":"2023-09-25T03:00:00:Z","depth":0,"parameterNumber":3,"parameterNumberName":"V-component_of_WINDS"},"data":[0,0,0,0,0,0,0,0,0,0,0,0,0,0,0,0,0,0,0,0,0,0,0,0,0,0,0,0,0,0,0,0,0,0,0,0,0,0,0,0,0,0,0,0,0,0,0,0,0,0,0,0,0,0,0,0,0,0,-2.2751,-2.2752,0,-2.282,-2.2821,-2.2822,-2.2825,-2.2824,-2.2823,-2.2822,-2.2889,-2.2891,-2.2894,0,0,0,0,0,0,0,0,0,0,0,0,0,-2.2617,-2.262,-2.2751,-2.2752,-2.2753,-2.282,-2.2821,-2.2822,-2.2825,-2.2824,-2.2823,-2.2822,-2.2888,-2.2891,-2.2894,0,0,0,0,0,0,0,0,0,0,0,0,0,-2.268,-2.2621,-2.2751,-2.2762,-2.2764,-2.282,-2.2821,-2.2822,-2.2825,-2.2824,-2.2822,-2.2821,-2.2887,-2.2891,-2.2895,-2.2942,0,0,-2.2906,-2.2908,0,0,0,0,0,0,0,0,-2.2676,-2.2685,-2.276,-2.2762,-2.2764,-2.2813,-2.2798,-2.2862,-2.2825,-2.2802,-2.2822,-2.2821,-2.2864,-2.287,-2.2885,-2.2945,-2.2948,-2.2907,-2.2909,-2.2911,-2.2912,0,0,0,0,0,0,0,-2.2672,-2.2682,-2.2778,-2.2761,-2.2763,-2.2763,-2.277,-2.281,-2.2839,-2.2804,-2.2804,-2.2812,-2.2865,-2.2882,-2.2887,-2.2949,-2.2906,-2.291,-2.2912,-2.2914,-2.305,-2.3052,0,0,0,0,0,0,-2.2666,-2.2678,-2.2776,-2.278,-2.2716,-2.2766,-2.2774,-2.2798,-2.2838,-2.2844,-2.2813,-2.2812,-2.2876,-2.2883,-2.2889,-2.2947,-2.291,-2.2914,-2.2916,-2.3049,-2.3051,-2.3052,0,0,0,0,0,0,-2.2663,-2.2675,-2.2773,-2.2729,-2.2742,-2.277,-2.2796,-2.28,-2.2817,-2.2846,-2.285,-2.2825,-2.2875,-2.2884,-2.2929,-2.2949,-2.2916,-2.2919,-2.3047,-2.3049,-2.3051,-2.3063,0,0,0,0,0,0,-2.2659,-2.2674,-2.2693,-2.273,-2.2744,-2.2813,-2.2797,-2.2802,-2.2824,-2.2823,-2.2858,-2.2863,-2.2875,-2.2923,-2.2933,-2.2954,-2.2922,-2.3046,-2.3048,-2.3051,-2.3061,-2.3065,-2.3069,0,0,0,0,0,-2.2654,-2.2693,-2.2694,-2.2706,-2.2769,-2.2814,-2.2823,-2.2837,-2.2825,-2.2844,-2.2863,-2.2862,-2.2946,-2.2928,-2.2939,-2.2961,-2.3044,-2.3047,-2.305,-2.3059,-2.3064,-2.3069,0,0,0,0,0,0,-2.2657,-2.2698,-2.27,-2.2752,-2.278,-2.2815,-2.2839,-2.2842,-2.2872,-2.287,-2.2885,-2.2893,-2.2937,-2.2954,-2.2933,-2.3009,-2.2993,-2.2999,-2.2996,-2.3002,-2.3006,-2.3,-2.2925,0,0,0,0,0,-2.2664,-2.2698,-2.2732,-2.2774,-2.2788,-2.2812,-2.2832,-2.284,-2.2869,-2.288,-2.2902,-2.2929,-2.2962,-2.2983,-2.3014,-2.3063,-2.307,-2.3084,-2.3088,-2.3091,-2.3095,-2.3121,-2.3127,-2.3062,-2.3062,-2.3062,0,0,-2.2678,-2.2705,-2.2725,-2.2776,-2.2798,-2.2832,-2.2821,-2.2858,-2.2883,-2.2886,-2.293,-2.2947,-2.2977,-2.3025,-2.3046,-2.304,-2.3115,-2.3095,-2.3097,-2.31,-2.3125,-2.3131,-2.3137,-2.3064,-2.3064,-2.3063,0,0,-2.2721,-2.2745,-2.2783,-2.2806,-2.2841,-2.2855,-2.2864,-2.2899,-2.2911,-2.2956,-2.2958,-2.2987,-2.3043,-2.3064,-2.3083,-2.3133,-2.3133,-2.3142,-2.3163,-2.3188,-2.3193,-2.3198,-2.3215,-2.3221,-2.3147,-2.3147,-2.3147,0,-2.2734,-2.2786,-2.2802,-2.2838,-2.286,-2.2865,-2.2902,-2.2923,-2.2966,-2.298,-2.2972,-2.3041,-2.3062,-2.3114,-2.3126,-2.3141,-2.3151,-2.3138,-2.3192,-2.3196,-2.3201,-2.3217,-2.3223,-2.3148,-2.3148,-2.3147,-2.3147,0,-2.28,-2.2836,-2.2862,-2.2904,-2.2928,-2.2965,-2.2984,-2.3007,-2.3013,-2.3028,-2.3072,-2.3098,-2.3134,-2.3147,-2.3153,-2.32,-2.3194,-2.3189,-2.3174,-2.3208,-2.3223,-2.323,-2.3149,-2.3149,-2.3148,-2.3148,0,0,-2.2847,-2.2896,-2.2906,-2.2924,-2.2963,-2.299,-2.3026,-2.3063,-2.3081,-2.311,-2.314,-2.3186,-2.3182,-2.3202,-2.321,-2.3233,-2.3269,-2.3224,-2.3225,-2.3231,-2.332,-2.3324,-2.3331,-2.3269,-2.3271,-2.3272,-2.3318,0,-2.2893,-2.2959,-2.2974,-2.303,-2.3063,-2.3067,-2.3099,-2.3125,-2.314,-2.3168,-2.3184,-2.3217,-2.3208,-2.3221,-2.3243,-2.326,-2.3287,-2.3257,-2.3296,-2.3297,-2.3288,-2.3339,-2.3344,-2.3386,-2.3324,-2.3325,-2.3326,0,-2.2957,-2.2988,-2.3048,-2.3081,-2.3095,-2.3123,-2.3157,-2.3185,-2.3214,-2.3223,-2.3246,-2.3252,-2.3288,-2.3271,-2.332,-2.3299,-2.3316,-2.3326,-2.3328,-2.3332,-2.3313,-2.3344,-2.34,-2.3406,-2.3335,-2.3335,-2.3334,0,-2.2984,-2.3041,-2.3084,-2.31,-2.314,-2.3159,-2.3176,-2.3204,-2.3225,-2.3254,-2.3267,-2.3299,-2.3317,-2.3341,-2.3355,-2.3342,-2.3402,-2.3387,-2.341,-2.3409,-2.3422,-2.3421,-2.3481,-2.3434,-2.3434,-2.3434,-2.3433,0,-2.3034,-2.307,-2.3096,-2.3123,-2.3163,-2.3178,-2.3217,-2.3234,-2.3258,-2.3287,-2.3292,-2.3319,-2.3335,-2.3364,-2.3374,-2.3412,-2.342,-2.3428,-2.343,-2.3427,-2.3426,-2.3438,-2.3435,-2.3435,-2.3435,-2.3435,-2.3434,0,-2.3071,-2.3091,-2.3138,-2.3171,-2.3181,-2.3209,-2.3237,-2.3262,-2.3276,-2.3312,-2.3322,-2.3344,-2.3378,-2.3394,-2.3435,-2.3442,-2.3485,-2.3486,-2.3476,-2.3477,-2.3498,-2.3495,-2.3567,-2.3577,-2.3523,-2.3524,-2.3524,0,-2.3102,-2.313,-2.3167,-2.3187,-2.3205,-2.3237,-2.3259,-2.3274,-2.3296,-2.333,-2.335,-2.3384,-2.3412,-2.3465,-2.3484,-2.3515,-2.3516,-2.3539,-2.3521,-2.3517,-2.3516,-2.3514,-2.3516,-2.3542,-2.3543,-2.3543,-2.3543,0,-2.3154,-2.3162,-2.3193,-2.3228,-2.3253,-2.328,-2.3307,-2.3323,-2.3342,-2.3366,-2.3401,-2.3422,-2.3465,-2.3498,-2.353,-2.3546,-2.3548,-2.3549,-2.3556,-2.3553,-2.3546,-2.3549,-2.3484,-2.3547,-2.3547,-2.3547,-2.3546,-2.3546,-2.3189,-2.3214,-2.3243,-2.3277,-2.3299,-2.3324,-2.3349,-2.3367,-2.3397,-2.3433,-2.344,-2.3476,-2.3503,-2.3547,-2.3564,-2.3591,-2.3586,-2.3596,-2.3599,-2.3601,-2.3601,-2.3542,-2.3597,-2.3597,-2.3597,-2.3597,-2.3597,0,-2.3241,-2.326,-2.3291,-2.3329,-2.3355,-2.3356,-2.3385,-2.3407,-2.3439,-2.3464,-2.3492,-2.3531,-2.3563,-2.3584,-2.3616,-2.3634,-2.3636,-2.3642,-2.3641,-2.3644,-2.3605,-2.3596,-2.364,-2.364,-2.364,-2.364,-2.364,-2.364,-2.3271,-2.3312,-2.3324,-2.3376,-2.3394,-2.3431,-2.3448,-2.347,-2.349,-2.3534,-2.3561,-2.3575,-2.3598,-2.3632,-2.3661,-2.3666,-2.3677,-2.3683,-2.3688,-2.3651,-2.3647,-2.3642,-2.3634,-2.3686,-2.3686,-2.3725,-2.3726,-2.3726]}]]